Location: Bosdarros
(43.2167°N, 0.3667°W)
Time: 11:59:52
(UTC+00:00)

FENGYUN 1C DEB - Pass Details

Date: 24 October 2021
Orbit: 805 x 871 km, 98.8° (Epoch: 26 November)

Event Time Altitude Azimuth Distance (km) Brightness Sun altitude
Exits shadow 19:03:50 47° 126° (SE) 1,065 ? -22.4°
Maximum altitude 19:05:09 62° 72° (ENE) 906 ? -22.7°
Drops below altitude 10° 19:10:23 10° 353° (N) 2,406 ? -23.6°
Sets 19:12:45 0° 350° (N) 3,348 ? -24.0°
